Tracking 20628 objects as of 7-Apr-2020
HD Live streaming from Space Station
objects crossing your sky now

SL-14 R/B

Track SL-14 R/B now!
10-day predictions


NORAD ID: 17296
Int'l Code: 1987-003B
Perigee: 611.7 km
Apogee: 640.5 km
Inclination: 82.5 °
Period: 97.1 minutes
Semi major axis: 6997 km
RCS: 4.4495 m2 (large)
Launch date: January 14, 1987
Source: Commonwealth of Independent States (former USSR) (CIS)
Launch site: PLESETSK MISSILE AND SPACE COMPLEX (PKMTR)

Note: This is a ROCKET BODY
aabbcc
Your satellite tracking list
Your tracking list is empty




NASA's NSSDC Master Catalog

Two Line Element Set (TLE):
1 17296U 87003B   20098.57544236 +.00000079 +00000-0 +66751-5 0  9994
2 17296 082.5290 145.8685 0020615 081.3155 279.0394 14.83287933774029
Source of the keplerian elements: AFSPC